Location: ????????
(55.1591°N, 39.1782°E)
Time: 19:44:58
(UTC+00:00)

IDEFIX/ARIANE 42P - Pass Details

Date: 14 April 2024
Orbit: 783 x 800 km, 98.5° (Epoch: 17 May)

Event Time Altitude Azimuth Distance (km) Brightness Sun altitude
Rises 00:15:33 0° 13° (NNE) 3,288 6.8 -16.0°
Reaches altitude 10° 00:17:57 10° 7° (N) 2,356 5.8 -15.8°
Maximum altitude 00:22:52 45° 296° (WNW) 1,067 3.1 -15.3°
Enters shadow 00:25:45 23° 237° (WSW) 1,630 3.6 -15.0°
